Flag for Germany Weather past 2 weeks in Fürth, Bavaria, Germany

Now
63 °F

Passing clouds.


Feels Like: 63 °F
Forecast: 57 / 81 °F
Wind: 3 mph from Northwest

Location: Nuernberg

Current Time: Jul 31, 2014 at 6:39:14 AM

Latest Report: Jul 31, 2014 at 6:20 AM


Visibility: N/A

Pressure: 29.95 "Hg

Humidity: 94%

Dew point: 61 °F

Location of FürthLocation

Historic Weather in Fürth — Graph

°F

Fürth temperature yesterday

Maximum temperature yesterday: 75 °F (at 2:20 PM)
Minimum temperature yesterday: 64 °F (at 1:50 AM)
Average temperature yesterday: 68 °F

Past Weeks' High & Low Weather Summary

 TemperatureHumidityPressure
High90 °F (Jul 19, 3:20 PM)100% (Jul 16, 5:20 AM)30.18 "Hg (Jul 16, 5:20 AM)
Low54 °F (Jul 16, 5:20 AM)26% (Jul 19, 5:50 PM)29.71 "Hg (Jul 29, 5:20 PM)
Average70 °F71%29.94 "Hg
* Reported Jul 16 5:20 AM — Jul 31 5:20 AM, Fürth, Weather by CustomWeather, © 2014

Note: Actual official high and low records may vary slightly from our data, if they occured in-between our weather recording intervals... More about our weather records

Advertising

Fürth weather history for previous 24 hours

 ConditionsComfort  
Time TempWeatherWind HumidityBarometerVisibility
5:20 AM
Jul 31
64 °FPassing clouds.3 mph88%29.95 "HgN/A
4:50 AM64 °FPassing clouds.5 mph88%29.95 "HgN/A
4:20 AM64 °FPassing clouds.5 mph88%29.92 "HgN/A
3:50 AM64 °FPassing clouds.5 mph88%29.92 "HgN/A
3:20 AM64 °FPassing clouds.5 mph88%29.92 "HgN/A
2:50 AM64 °FPassing clouds.2 mph88%29.92 "HgN/A
2:20 AM64 °FPassing clouds.3 mph88%29.92 "HgN/A
1:50 AM64 °FOvercast.6 mph88%29.92 "HgN/A
1:20 AM66 °FOvercast.3 mph83%29.92 "HgN/A
12:50 AM66 °FOvercast.5 mph83%29.92 "HgN/A
12:20 AM66 °FOvercast.6 mph83%29.92 "HgN/A
11:50 PM
Jul 30
66 °FPassing clouds.5 mph88%29.89 "HgN/A
11:20 PM66 °FPassing clouds.6 mph88%29.89 "HgN/A
10:50 PM66 °FPassing clouds.6 mph83%29.89 "HgN/A
10:20 PM68 °FPassing clouds.6 mph83%29.89 "HgN/A
9:50 PM68 °FPartly sunny.6 mph83%29.89 "HgN/A
9:20 PM68 °FScattered clouds.7 mph83%29.86 "HgN/A
8:50 PM68 °FScattered showers. Partly sunny.5 mph83%29.86 "HgN/A
8:20 PM70 °FScattered showers. Broken clouds.6 mph83%29.83 "HgN/A
7:50 PM70 °FScattered showers. Broken clouds.5 mph88%29.83 "HgN/A
7:20 PM70 °FScattered showers. Partly sunny.6 mph88%29.80 "HgN/A
6:50 PM70 °FSprinkles. Broken clouds.7 mph88%29.80 "HgN/A
6:20 PM70 °FSprinkles. Broken clouds.6 mph88%29.80 "HgN/A
5:50 PM73 °FBroken clouds.3 mph78%29.80 "HgN/A
5:20 PM72 °FPartly sunny.3 mph83%29.80 "HgN/A
4:50 PM73 °FBroken clouds.5 mph74%29.77 "HgN/A
4:20 PM73 °FSprinkles. Broken clouds.2 mph83%29.77 "HgN/A
3:50 PM70 °FSprinkles. Broken clouds.13 mph88%29.80 "HgN/A
3:20 PM75 °FPartly sunny.6 mph69%29.77 "HgN/A
2:50 PM75 °FPartly sunny.6 mph69%29.77 "HgN/A
2:20 PM75 °FPartly sunny.6 mph69%29.77 "HgN/A
1:50 PM73 °FBroken clouds.5 mph74%29.77 "HgN/A
1:20 PM73 °FBroken clouds.5 mph78%29.77 "HgN/A
12:50 PM70 °FBroken clouds.5 mph83%29.77 "HgN/A
12:20 PM70 °FBroken clouds.5 mph83%29.77 "HgN/A
11:50 AM70 °FBroken clouds.3 mph83%29.80 "HgN/A
11:20 AM70 °FBroken clouds.6 mph88%29.77 "Hg6 mi
10:50 AM68 °FBroken clouds.2 mph88%29.77 "Hg5 mi
10:20 AM68 °FBroken clouds.3 mph88%29.77 "Hg4 mi
9:50 AM66 °FBroken clouds.3 mph94%29.77 "Hg4 mi
9:20 AM66 °FBroken clouds.2 mph94%29.77 "Hg4 mi
8:50 AM66 °FPartly sunny.3 mph94%29.77 "Hg4 mi
8:20 AM66 °FPartly sunny.2 mph94%29.77 "Hg4 mi
7:50 AM66 °FPartly sunny.3 mph94%29.77 "Hg4 mi
7:20 AM64 °FPartly sunny.5 mph100%29.74 "Hg4 mi
6:50 AM64 °FPartly sunny.3 mph100%29.74 "Hg3 mi
6:20 AM64 °FPassing clouds.3 mph100%29.74 "Hg4 mi
Weather by CustomWeather, © 2014

See weather overviewHow to use our weather pages